Simultaneous Nadir Overpasses (SNOs) Predictions

Prediction of SNOs between FY3D and NOAA-19 Satellite Orbit:

Table of predicted SNOs for the next 14.0 days since TLE Epoch: 1/24/2025
Index Date (FY3D) Time (FY3D) Lat,Lon (FY3D) SZA (FY3D ) Date (NOAA-19) Time (NOAA-19) Lat,Lon (NOAA-19) SZA (NOAA-19 ) Distance(km) Time Diff (sec)
1 01/25/2025 17:09:50 75.58, -72.17 94.28 01/25/2025 17:08:43 75.56, -75.06 94.26 80.05 67
2 01/25/2025 18:00:44 -76.02, 93.65 85.30 01/25/2025 17:59:38 -75.99, 93.65 85.32 3.11 66
3 01/25/2025 18:51:29 76.00, -98.96 94.68 01/25/2025 18:50:30 76.01, -98.99 94.69 2.10 59
4 01/25/2025 19:42:14 -76.03, 68.25 85.31 01/25/2025 19:41:34 -76.03, 68.31 85.30 1.74 40
5 01/25/2025 20:32:59 76.00,-124.35 94.67 01/25/2025 20:32:27 76.01,-124.49 94.67 3.87 32
6 01/25/2025 21:23:44 -76.03, 42.86 85.32 01/25/2025 21:23:31 -76.03, 42.81 85.32 1.32 13
7 01/25/2025 22:14:29 76.05,-149.91 94.70 01/25/2025 22:14:22 76.05,-149.83 94.70 2.04 7
8 01/25/2025 23:05:13 -76.04, 17.47 85.33 01/25/2025 23:05:26 -76.07, 17.47 85.30 3.61 13
9 01/25/2025 23:55:59 76.06,-175.30 94.69 01/25/2025 23:56:19 76.05,-175.33 94.67 1.74 20
10 01/26/2025 00:46:44 -76.09, -8.09 85.30 01/26/2025 00:47:23 -76.07, -8.03 85.32 2.96 39
11 01/26/2025 01:37:29 76.07, 159.30 94.67 01/26/2025 01:38:15 76.09, 159.33 94.70 2.42 46
12 01/26/2025 02:28:14 -76.09, -33.48 85.31 01/26/2025 02:29:19 -76.11, -33.36 85.30 3.44 65
13 01/26/2025 03:18:59 76.07, 133.91 94.66 01/26/2025 03:20:12 76.08, 133.83 94.67 2.50 73



Historial Predications of SNOs between FY3D and NOAA-19
